This is the latest recevied weather packets stored in our database for station/object NM5PB-13. If no packets are shown the sender has not sent any weather packets the latest 10 day(s).
| Time | Temp. | Humidity | Pressure | Rain* | Wind** | Luminosity | Snow |
|---|---|---|---|---|---|---|---|
| 1777668509 | 12.22° C | 51% | 1017 hPa | 0 mm | - | - | - |
| 1777667606 | 13.33° C | 49% | 1017 hPa | 0 mm | - | - | - |
| 1777666702 | 12.22° C | 51% | 1016 hPa | 0 mm | - | - | - |
| 1777665797 | 11.11° C | 53% | 1017 hPa | 0 mm | - | - | - |
| 1777664895 | 10.56° C | 56% | 1017 hPa | 0 mm | - | - | - |
| 1777663989 | 10.56° C | 61% | 1017 hPa | 0 mm | - | - | - |
| 1777663086 | 10.56° C | 59% | 1017 hPa | 0 mm | - | - | - |
| 1777662182 | 10.56° C | 55% | 1017 hPa | 0 mm | - | - | - |
| 1777661280 | 11.11° C | 59% | 1017 hPa | 0 mm | - | - | - |
| 1777660375 | 11.67° C | 57% | 1017 hPa | 0 mm | - | - | - |
| 1777659471 | 11.67° C | 55% | 1016 hPa | 0 mm | - | - | - |
| 1777658567 | 11.67° C | 55% | 1016 hPa | 0 mm | - | - | - |
| 1777657663 | 11.11° C | 59% | 1017 hPa | 0 mm | - | - | - |
| 1777656758 | 11.11° C | 56% | 1017 hPa | 0 mm | - | - | - |
| 1777655855 | 10° C | 62% | 1017 hPa | 0 mm | - | - | - |
| 1777654951 | 10° C | 65% | 1017 hPa | 0 mm | - | - | - |
| 1777654047 | 9.44° C | 67% | 1017 hPa | 0 mm | - | - | - |
| 1777653141 | 10° C | 65% | 1017 hPa | 0 mm | - | - | - |
| 1777652238 | 8.89° C | 69% | 1017 hPa | 0 mm | - | - | - |
| 1777651335 | 8.89° C | 70% | 1017 hPa | 0 mm | - | - | - |
| 1777650429 | 8.33° C | 66% | 1017 hPa | 0 mm | - | - | - |
| 1777649526 | 7.78° C | 69% | 1017 hPa | 0 mm | - | - | - |
| 1777648623 | 7.78° C | 70% | 1017 hPa | 0 mm | - | - | - |
| 1777647712 | 7.78° C | 67% | 1017 hPa | 0 mm | - | - | - |
| 1777646802 | 7.78° C | 65% | 1017 hPa | 0 mm | - | - | - |
* Rain latest hour (hover to see other rain measurements)
** Current wind speed in m/s (hover to see current wind gust speed)